Login

Stex_mtb
1 activity; - Last training unit 11/06/2019
11/06/2019 Show to everybody Giro mattutino 36.81 1166 03:12:24 11.48 Km\h
09/06/2019 Show to everybody Monte Prado 25.95 682 03:28:13 7.48 Km\h
08/06/2019 Show to everybody Giro pomeridiano 2.87 49 00:50:41 3.39 Km\h
08/06/2019 Show to everybody Monte Prado 33.18 1392 04:26:01 7.48 Km\h
04/06/2019 Show to everybody Belvedere by night 17.8 768 01:42:41 10.4 Km\h
02/06/2019 Show to everybody Giro mattutino 60.06 119 04:06:06 14.64 Km\h
01/06/2019 Show to everybody Giro mattutino 27.65 1186 03:05:21 8.95 Km\h
29/05/2019 Show to everybody Giro pomeridiano 18.41 772 01:51:03 9.94 Km\h
26/05/2019 Show to everybody Giro pomeridiano 13.17 571 01:13:24 10.76 Km\h
26/05/2019 Show to everybody Giro dell'ora di pranzo 17.79 269 01:37:46 10.92 Km\h
25/05/2019 Show to everybody Giro dell'ora di pranzo 11.44 69 00:47:38 14.41 Km\h
20/05/2019 Show to everybody Giro dell'ora di pranzo 30.48 1155 03:07:52 9.74 Km\h
18/05/2019 Show to everybody Giro pomeridiano 20.55 88 01:54:06 10.81 Km\h
14/05/2019 Show to everybody Giro pomeridiano 15.17 764 01:32:19 9.86 Km\h
11/05/2019 Show to everybody Giro pomeridiano 14.32 765 01:31:28 9.39 Km\h
11/05/2019 Show to everybody Spoleto con Lucia 39.82 120 02:45:00 14.48 Km\h
07/05/2019 Show to everybody La quiete dopo la tempesta 16.98 576 01:32:06 11.06 Km\h
05/05/2019 Show to everybody San Vincenzo 19 29.07 1194 03:34:39 8.13 Km\h
04/05/2019 Show to everybody SAN VINCENZO 2019 28.54 1196 05:23:37 5.29 Km\h
27/04/2019 Show to everybody cala violina 18.38 193 00:00:00 0 Km\h
27/04/2019 Show to everybody Cala Violina short 7.4 134 00:29:01 15.29 Km\h
27/04/2019 Show to everybody parco uccellina 25.77 125 02:09:56 11.9 Km\h
26/04/2019 Show to everybody orbetello 20.21 112 01:53:39 10.67 Km\h
24/04/2019 Show to everybody Giro serale 17.08 760 01:31:36 11.19 Km\h
22/04/2019 Show to everybody Verona-Mantova 50.77 39 03:59:41 12.71 Km\h
21/04/2019 Show to everybody Peschiera-Verona 35.41 182 03:04:52 11.49 Km\h
20/04/2019 Show to everybody Mantova-Peschiera 46.1 122 03:48:02 12.13 Km\h
19/04/2019 Show to everybody Giro pomeridiano 16.46 634 01:34:49 10.41 Km\h
17/04/2019 Show to everybody Giro mattutino 27.39 1193 03:12:03 8.56 Km\h
14/04/2019 Show to everybody Giro dell'ora di pranzo 34.39 50 02:47:22 12.33 Km\h
16/03/2017 Show to everybody Brunette-Cammoro-Serano 45.83 1890 05:14:36 8.74 Km\h Giant Trance Sx
08/12/2016 Show to everybody Acuto-Catria-Petria 29.6 1303 03:35:51 8.23 Km\h Giant Trance Sx
02/07/2016 Show to everybody Colle des Fontaines (Vda) 41.81 1761 05:40:11 7.37 Km\h Giant Trance Sx
16/06/2016 Show to everybody Monte Porrara 33.09 1519 06:01:56 5.49 Km\h Giant Trance Sx
05/05/2016 Show to everybody Vergozze-Serano 44.78 1630 04:23:32 10.19 Km\h Giant Trance Sx
13/11/2015 Show to everybody Maiella-Mandrelle 23.52 1279 03:59:05 5.9 Km\h Giant Trance Sx
13/06/2015 Show to everybody Cima Lepri_Pizzo di Moscio 34.74 1744 07:25:43 4.68 Km\h Giant Trance Sx
02/04/2015 Show to everybody Enduro Spoleto 45.27 1084 04:04:07 11.13 Km\h Giant Trance Sx
28/02/2015 Show to everybody Fosso Venerino 22.27 1042 02:45:53 8.05 Km\h Giant Trance Sx
20/02/2015 Show to everybody Ponze-Vallupo 34.26 994 03:45:29 9.12 Km\h Giant Trance Sx
30/11/2014 Show to everybody Serano Brunette 30.54 1172 03:53:45 7.84 Km\h Giant Trance Sx
22/03/2014 Show to everybody Monte Serano 25.95 1286 03:25:46 7.57 Km\h Bottecchia Fadalto
16/02/2014 Show to everybody Monte Maggiore da Piedipaterno 39.26 1304 04:31:34 8.67 Km\h Bottecchia Fadalto
17/08/2013 Show to everybody Maiella Fara San Martino 28.67 1177 05:35:35 5.13 Km\h Cannondale Moto
16/08/2013 Show to everybody Maiella Valle Taranta 24.73 1047 04:09:01 5.96 Km\h Cannondale Moto
Show previous years trainings
Training units 30
Kilometers 759 Km
Vertical gain 16 445 mt
Hours of riding 72:13:26
Average speed 10.18 Km/h
average HR 207
Points 1061
Live Tracking »

Cannondale Moto 245:38:49 2074.88 Km
Bottecchia Fadalto 86:50:33 769.32 Km
Intense Tracer 08:44:43 67.16 Km
Giant Trance Sx 723:42:31 6134.53 Km

 
If you stop following this users you will not be able to compare your trainings with his

Now you follow this users and you can compare your trainings


MTB-Forum.it | 2012-2019 Training Camp v.1.6 rev 05